• In Deutschland
  • Länderverzeichnis
  • Für 7 Tage
  • Wassertemperatur
  • Satellitenkarten
  • Wetterkarte
  • Widgets
  • user-avatar
    Anmelden

    Stündliche Wetter Pfungstadt

    Heute, 18 Oktober, Mittwoch

    Zeit Temperatur Niederschläge Wind Luftdruck Luftfeuchtigkeit
    00:00 +14°C° 0 mm 0 m/S 753 mmHg 70%
    01:00 +15°C° 0 mm 1 m/S 753 mmHg 67%
    02:00 +14°C° 0 mm 1 m/S 753 mmHg 68%
    03:00 +14°C° 0 mm 1 m/S 752 mmHg 69%
    04:00 +14°C° 0 mm 1 m/S 752 mmHg 70%
    05:00 +13°C° 0 mm 1 m/S 752 mmHg 70%
    06:00 +13°C° 0 mm 1 m/S 752 mmHg 71%
    07:00 +12°C° 0 mm 1 m/S 752 mmHg 70%
    08:00 +13°C° 0 mm 1 m/S 752 mmHg 66%
    09:00 +15°C° 0 mm 2 m/S 752 mmHg 61%
    10:00 +17°C° 0 mm 2 m/S 752 mmHg 57%
    11:00 +18°C° 0 mm 2 m/S 751 mmHg 55%
    12:00 +19°C° 0 mm 2 m/S 751 mmHg 52%
    13:00 +20°C° 0 mm 3 m/S 751 mmHg 50%
    14:00 +20°C° 0 mm 2 m/S 751 mmHg 52%
    15:00 +20°C° 0 mm 2 m/S 751 mmHg 54%
    16:00 +20°C° 0 mm 2 m/S 750 mmHg 56%
    17:00 +20°C° 0 mm 1 m/S 750 mmHg 61%
    18:00 +18°C° 0 mm 1 m/S 750 mmHg 66%
    19:00 +16°C° 0 mm 1 m/S 751 mmHg 70%
    20:00 +15°C° 0 mm 1 m/S 751 mmHg 71%
    21:00 +15°C° 0 mm 1 m/S 751 mmHg 72%
    22:00 +14°C° 0 mm 1 m/S 751 mmHg 72%
    23:00 +14°C° 0 mm 1 m/S 751 mmHg 73%

    Morgen, 19 Oktober, Donnerstag

    Zeit Temperatur Niederschläge Wind Luftdruck Luftfeuchtigkeit
    00:00 +14°C° 0 mm 1 m/S 751 mmHg 73%
    01:00 +14°C° 0 mm 1 m/S 751 mmHg 73%
    02:00 +13°C° 0 mm 1 m/S 751 mmHg 73%
    03:00 +13°C° 0 mm 1 m/S 750 mmHg 74%
    04:00 +13°C° 0 mm 1 m/S 750 mmHg 74%
    05:00 +13°C° 0 mm 1 m/S 750 mmHg 73%
    06:00 +13°C° 0 mm 1 m/S 750 mmHg 73%
    07:00 +12°C° 0 mm 1 m/S 750 mmHg 73%
    08:00 +14°C° 0 mm 1 m/S 750 mmHg 67%
    09:00 +16°C° 0 mm 1 m/S 751 mmHg 62%
    10:00 +19°C° 0 mm 1 m/S 751 mmHg 56%
    11:00 +20°C° 0 mm 1 m/S 751 mmHg 52%
    12:00 +20°C° 0 mm 2 m/S 750 mmHg 49%
    13:00 +23°C° 0 mm 2 m/S 750 mmHg 45%
    14:00 +21°C° 0 mm 2 m/S 750 mmHg 48%
    15:00 +21°C° 0 mm 2 m/S 750 mmHg 50%
    16:00 +22°C° 0 mm 1 m/S 749 mmHg 52%
    17:00 +21°C° 0 mm 1 m/S 750 mmHg 56%
    18:00 +19°C° 0 mm 1 m/S 750 mmHg 60%
    19:00 +18°C° 0 mm 1 m/S 750 mmHg 64%
    20:00 +16°C° 0 mm 1 m/S 750 mmHg 66%
    21:00 +16°C° 0 mm 1 m/S 750 mmHg 67%
    22:00 +15°C° 0 mm 1 m/S 750 mmHg 69%
    23:00 +15°C° 0 mm 1 m/S 750 mmHg 70%

    übermorgen, 20 Oktober, Freitag

    Zeit Temperatur Niederschläge Wind Luftdruck Luftfeuchtigkeit
    00:00 +14°C° 0 mm 1 m/S 750 mmHg 72%
    01:00 +14°C° 0 mm 1 m/S 751 mmHg 73%
    02:00 +14°C° 0 mm 1 m/S 751 mmHg 74%
    03:00 +14°C° 0 mm 1 m/S 751 mmHg 74%
    04:00 +13°C° 0 mm 1 m/S 751 mmHg 75%
    05:00 +13°C° 0 mm 1 m/S 751 mmHg 76%
    06:00 +13°C° 0 mm 1 m/S 751 mmHg 76%
    07:00 +13°C° 0 mm 1 m/S 751 mmHg 77%
    08:00 +14°C° 0 mm 1 m/S 751 mmHg 72%
    09:00 +16°C° 0 mm 1 m/S 751 mmHg 67%
    10:00 +17°C° 0 mm 2 m/S 752 mmHg 63%
    11:00 +18°C° 0 mm 2 m/S 752 mmHg 60%
    12:00 +19°C° 0 mm 2 m/S 752 mmHg 57%
    13:00 +20°C° 0 mm 3 m/S 752 mmHg 53%
    14:00 +19°C° 0,2 mm 3 m/S 752 mmHg 60%
    15:00 +18°C° 0,2 mm 3 m/S 752 mmHg 66%
    16:00 +18°C° 0,2 mm 3 m/S 752 mmHg 72%
    17:00 +17°C° 0,3 mm 2 m/S 752 mmHg 76%
    18:00 +16°C° 0,3 mm 2 m/S 752 mmHg 81%
    19:00 +15°C° 0,3 mm 1 m/S 753 mmHg 85%
    20:00 +15°C° 0,1 mm 1 m/S 753 mmHg 85%
    21:00 +15°C° 0,1 mm 2 m/S 753 mmHg 86%
    22:00 +14°C° 0,1 mm 2 m/S 753 mmHg 86%
    23:00 +14°C° 0 mm 2 m/S 753 mmHg 87%

    21 Oktober, Samstag

    Zeit Temperatur Niederschläge Wind Luftdruck Luftfeuchtigkeit
    00:00 +14°C° 0 mm 2 m/S 753 mmHg 88%
    01:00 +13°C° 0 mm 1 m/S 753 mmHg 88%
    02:00 +13°C° 0 mm 1 m/S 753 mmHg 88%
    03:00 +14°C° 0 mm 2 m/S 753 mmHg 88%
    04:00 +14°C° 0 mm 2 m/S 752 mmHg 88%
    05:00 +14°C° 0 mm 2 m/S 752 mmHg 88%
    06:00 +14°C° 0 mm 2 m/S 752 mmHg 88%
    07:00 +14°C° 0 mm 2 m/S 752 mmHg 87%
    08:00 +14°C° 0 mm 3 m/S 752 mmHg 83%
    09:00 +16°C° 0 mm 3 m/S 752 mmHg 79%
    10:00 +17°C° 0 mm 4 m/S 752 mmHg 75%
    11:00 +18°C° 0,1 mm 4 m/S 751 mmHg 73%
    12:00 +18°C° 0,1 mm 4 m/S 751 mmHg 70%
    13:00 +19°C° 0,1 mm 4 m/S 751 mmHg 68%
    14:00 +18°C° 0,4 mm 4 m/S 751 mmHg 73%
    15:00 +17°C° 0,4 mm 4 m/S 751 mmHg 79%
    16:00 +15°C° 0,4 mm 4 m/S 751 mmHg 84%
    17:00 +14°C° 1 mm 3 m/S 751 mmHg 85%
    18:00 +14°C° 1 mm 3 m/S 752 mmHg 87%
    19:00 +13°C° 1 mm 3 m/S 752 mmHg 88%
    20:00 +13°C° 0,2 mm 3 m/S 752 mmHg 87%
    21:00 +13°C° 0,2 mm 3 m/S 753 mmHg 85%
    22:00 +12°C° 0,2 mm 4 m/S 753 mmHg 84%
    23:00 +12°C° 0 mm 4 m/S 753 mmHg 83%

    22 Oktober, Sonntag

    Zeit Temperatur Niederschläge Wind Luftdruck Luftfeuchtigkeit
    00:00 +11°C° 0 mm 4 m/S 753 mmHg 83%
    01:00 +11°C° 0 mm 4 m/S 753 mmHg 82%
    02:00 +11°C° 0 mm 4 m/S 753 mmHg 83%
    03:00 +10°C° 0 mm 4 m/S 753 mmHg 83%
    04:00 +10°C° 0 mm 4 m/S 753 mmHg 84%
    05:00 +8°C° 0 mm 4 m/S 753 mmHg 83%
    06:00 +8°C° 0 mm 4 m/S 753 mmHg 83%
    07:00 +8°C° 0 mm 4 m/S 753 mmHg 82%
    08:00 +9°C° 0 mm 5 m/S 753 mmHg 79%
    09:00 +9°C° 0 mm 5 m/S 753 mmHg 76%
    10:00 +9°C° 0 mm 5 m/S 753 mmHg 73%
    11:00 +10°C° 0,1 mm 5 m/S 753 mmHg 71%
    12:00 +10°C° 0,1 mm 5 m/S 753 mmHg 69%
    13:00 +11°C° 0,1 mm 4 m/S 753 mmHg 67%
    14:00 +11°C° 0,2 mm 4 m/S 753 mmHg 67%
    15:00 +11°C° 0,2 mm 4 m/S 753 mmHg 66%
    16:00 +12°C° 0,2 mm 4 m/S 753 mmHg 66%
    17:00 +11°C° 0 mm 4 m/S 753 mmHg 69%
    18:00 +10°C° 0 mm 3 m/S 754 mmHg 73%
    19:00 +9°C° 0 mm 3 m/S 754 mmHg 77%
    20:00 +9°C° 0 mm 3 m/S 755 mmHg 78%
    21:00 +9°C° 0 mm 3 m/S 755 mmHg 80%
    22:00 +8°C° 0 mm 4 m/S 755 mmHg 82%
    23:00 +8°C° 0,1 mm 4 m/S 755 mmHg 83%

    23 Oktober, Montag

    Zeit Temperatur Niederschläge Wind Luftdruck Luftfeuchtigkeit
    00:00 +8°C° 0,1 mm 4 m/S 755 mmHg 84%
    01:00 +8°C° 0,1 mm 4 m/S 754 mmHg 85%
    02:00 +8°C° 0,4 mm 4 m/S 754 mmHg 86%
    03:00 +8°C° 0,4 mm 4 m/S 754 mmHg 87%
    04:00 +8°C° 0,4 mm 4 m/S 754 mmHg 87%
    05:00 +8°C° 0,6 mm 4 m/S 755 mmHg 88%
    06:00 +9°C° 0,6 mm 3 m/S 755 mmHg 88%
    07:00 +10°C° 0,6 mm 3 m/S 755 mmHg 88%
    08:00 +10°C° 0,2 mm 4 m/S 755 mmHg 86%
    09:00 +10°C° 0,2 mm 4 m/S 756 mmHg 84%
    10:00 +11°C° 0,2 mm 4 m/S 756 mmHg 81%
    11:00 +12°C° 0,1 mm 4 m/S 756 mmHg 79%
    12:00 +12°C° 0,1 mm 4 m/S 756 mmHg 77%
    13:00 +13°C° 0,1 mm 4 m/S 756 mmHg 74%
    14:00 +12°C° 0,2 mm 4 m/S 756 mmHg 77%
    15:00 +12°C° 0,2 mm 3 m/S 756 mmHg 80%
    16:00 +12°C° 0,2 mm 3 m/S 756 mmHg 82%
    17:00 +11°C° 0,1 mm 3 m/S 756 mmHg 84%
    18:00 +11°C° 0,1 mm 3 m/S 756 mmHg 86%
    19:00 +12°C° 0,1 mm 2 m/S 757 mmHg 88%
    20:00 +12°C° 0,1 mm 2 m/S 757 mmHg 89%
    21:00 +12°C° 0,1 mm 2 m/S 757 mmHg 90%
    22:00 +12°C° 0,1 mm 2 m/S 757 mmHg 91%
    23:00 +10°C° 0,1 mm 2 m/S 757 mmHg 92%
    Mehr zeigen